This demonstration page uses our WeatherBlox Daily Observations layout. Learn more.

Left ArrowRight Arrow

Hourly Observations for September 11, 2018

Temp ( °F °C ) Dew Point ( °F °C ) Humidity (%) Winds ( mph kmh ) Pressure ( in mb ) Visibility ( mi km ) Precip ( " mm )
12:53 am 00:53 Cloudy 62 16.7 61 16.1 96 96 Calm 30.10 1019 10 16 0.00 0.00
1:53 am 01:53 Cloudy 62 16.7 61 16.1 96 96 Calm 30.10 1019 10 16 0.00 0.00
2:53 am 02:53 Cloudy 62 16.7 61 16.1 96 96 Calm 30.11 1020 10 16 0.00 0.00
3:53 am 03:53 Cloudy 62 16.7 61 16.1 96 96 Calm 30.10 1019 10 16 0.00 0.00
4:53 am 04:53 Cloudy 62 16.7 61 16.1 96 96 Calm 30.11 1020 10 16 0.00 0.00
5:53 am 05:53 Cloudy 62 16.7 61 16.1 96 96 Calm 30.13 1020 10 16 0.00 0.00
6:53 am 06:53 Cloudy 62 16.7 61 16.1 96 96 Calm 30.14 1021 10 16 0.00 0.00
7:53 am 07:53 Cloudy 63 17.2 61 16.1 93 93 Calm 30.15 1021 10 16 0.00 0.00
8:53 am 08:53 Cloudy 64 17.8 61 16.1 90 90 N 5 7 30.16 1021 10 16 0.00 0.00
9:53 am 09:53 Cloudy 66 18.9 60 15.6 81 81 NNE 6 9 30.18 1022 10 16 0.00 0.00
10:53 am 10:53 Cloudy 67 19.4 61 16.1 81 81 NNE 6 9 30.19 1022 10 16 0.00 0.00
11:53 am 11:53 Cloudy 68 20 60 15.6 76 76 ENE 7 11 30.20 1023 10 16 0.00 0.00
12:53 pm 12:53 Cloudy 69 20.6 59 15 70 70 Calm 30.19 1023 10 16 0.00 0.00
1:53 pm 13:53 Cloudy 70 21.1 58 14.4 66 66 ENE 6 9 30.19 1022 10 16 0.00 0.00
2:53 pm 14:53 Cloudy 71 21.7 59 15 66 66 E 5 7 30.17 1022 10 16 0.00 0.00
3:53 pm 15:53 Cloudy 71 21.7 58 14.4 63 63 Calm 30.16 1021 10 16 0.00 0.00
4:53 pm 16:53 Cloudy 71 21.7 59 15 66 66 ENE 3 6 30.15 1021 10 16 0.00 0.00
5:53 pm 17:53 Cloudy 70 21.1 61 16.1 73 73 Calm 30.15 1021 10 16 0.00 0.00
6:53 pm 18:53 Cloudy 69 20.6 62 16.7 78 78 Calm 30.14 1021 10 16 0.00 0.00
7:53 pm 19:53 Cloudy 67 19.4 62 16.7 84 84 E 3 6 30.14 1021 10 16 0.00 0.00
8:53 pm 20:53 Cloudy 65 18.3 62 16.7 90 90 Calm 30.15 1021 10 16 0.00 0.00
9:53 pm 21:53 Cloudy 66 18.9 62 16.7 87 87 ENE 5 7 30.16 1021 10 16 0.00 0.00
10:53 pm 22:53 Cloudy 65 18.3 62 16.7 90 90 Calm 30.16 1021 10 16 0.00 0.00
11:53 pm 23:53 Cloudy 66 18.9 61 16.1 84 84 E 3 6 30.16 1021 10 16 0.00 0.00

Powered by AerisWeather